Regional Weather Roundup
Issued by NWS Grand Forks, ND

Home | Current Version | Previous Version | Graphics & Text | Print | Product List | Glossary On
Versions: 1 2 3 4 5 6 7 8 9 10 11 12 13 14 15 16 17 18 19 20 21 22 23 24 25 26 27 28 29 30 31 32 33 34 35 36 37 38 39 40 41 42 43 44 45 46 47 48 49 50
000
ASUS43 KFGF 050131
RWRFGF
PRAIRIE TO PINES  WEATHER ROUNDUP
NATIONAL WEATHER SERVICE EASTERN NORTH DAKOTA/GRAND FORKS ND
800 PM CDT TUE AUG 04 2015

 **SATELLITE DATA USED TO AUGMENT SKY COVER AT AUTOMATED STATIONS**
 *****  WEATHER ACROSS EASTERN NORTH DAKOTA  *****

CITY           SKY/WX    TMP DP  RH WIND       PRES   REMARKS
GRAND FORKS    CLEAR     73  55  53 N5        30.00R
GRAND FRKS AFB CLEAR     72  54  53 N6        30.00S
GRAND FRKS NWS   N/A     72 N/A N/A N2          N/A
DEVILS LAKE      N/A    N/A N/A N/A MISG        N/A
FARGO          CLEAR     76  54  46 NE7       29.98S
WAHPETON ARPT  CLEAR     73  45  35 NE5       29.99R
$$

 ***** WEATHER ACROSS CENTRAL AND WESTERN NORTH DAKOTA  *****

CITY           SKY/WX    TMP DP  RH WIND       PRES   REMARKS
BISMARCK       MOSUNNY   81  59  47 SE7       29.93R
MINOT          MOSUNNY   75  52  44 E8        29.94S
JAMESTOWN      CLEAR     73  58  59 E8        29.97F
MINOT AFB      MOSUNNY   77  55  47 E12       29.93S
GARRISON         N/A     77  60  55 E9        29.93S
WILLISTON      PTSUNNY   86  55  34 SE12      29.87S
DICKINSON      MOSUNNY   78  56  46 SE12      29.91S
HETTINGER      MOSUNNY   80  54  40 SE12G20   29.94R
$$

 *****  OTHER AIRPORT OBSERVATIONS IN OUR AREA  *****

CITY           SKY/WX    TMP DP  RH WIND       PRES   REMARKS
WALHALLA       FAIR      68  55  64 MISG      30.02S
GRAFTON AIRPOR FAIR      70  57  64 N5        30.02R
VALLEY CITY AR FAIR      72  55  56 E7        30.00R
CANDO          FAIR      72  54  53 E8        30.00S
CAVALIER APRT  FAIR      70  55  60 NE6       30.02R
GWINNER        FAIR      73  57  56 E6        29.99S
SHEYENNE NWR     N/A     77  56  47 E3        29.95
ROLLA          FAIR      66  55  68 E6        30.02S
 ***** THE ABOVE OBSERVATIONS ARE NON NWS ARE NOT QUALITY
       CONTROLLED AND MAY MIS-REPORT RAIN FOR SNOW...
$$

  *****  WEATHER ACROSS NORTHERN MINNESOTA  *****

CITY           SKY/WX    TMP DP  RH WIND       PRES   REMARKS
FLAG ISLAND    CLEAR     64  52  63 CALM      30.03R
WARROAD        CLEAR     66  55  68 E5        30.04R
ROSEAU         CLEAR     64  57  77 E5        30.02S
HALLOCK        CLEAR     70  55  60 N3        30.01R
THF RVR FALLS  CLEAR     72  54  53 NE5       30.02R
BAUDETTE       CLEAR     66  52  60 N5        30.03R
WASKISH        CLEAR     66  54  63 CALM      30.03R
CROOKSTON      CLEAR     72  55  56 CALM      30.01R
STEPHEN NDAWN    N/A     72  55  56 NE3         N/A
GREENBUSH NDAW   N/A     72  54  53 NW3         N/A
$$
  *****  WEATHER ACROSS CENTRAL AND WEST MINNESOTA  *****

CITY           SKY/WX    TMP DP  RH WIND       PRES   REMARKS
FOSSTON        CLEAR     70  52  52 CALM      30.02R
BEMIDJI        CLEAR     66  52  60 NE7       30.02R
PARK RAPIDS    CLEAR     75  50  41 N6        30.00S
ELBOW LAKE     FAIR      73  56  56 N3        29.99S
WADENA         CLEAR     70  54  56 CALM      30.00S
DETROIT LAKES  CLEAR     72  52  49 CALM      30.02S
MOORHEAD       CLEAR     72  55  56 NE3       30.00R
FERGUS FALLS   CLEAR     73  55  53 CALM      29.98R
MORRIS MN      CLEAR     75  54  46 CALM      29.99R
STAPLES        CLEAR     70  54  56 N3        30.00S
$$
  *****  WEATHER ELSEWHERE ACROSS MINNESOTA  *****

CITY           SKY/WX    TMP DP  RH WIND       PRES   REMARKS
DULUTH         PTCLDY    63  50  62 E8        30.01R
INTRNTL FALLS  MOCLDY    64  50  60 NE5       30.04R
ELY            CLOUDY    61  50  67 CALM      30.04R
CLOQUET        CLEAR     64  52  63 E6        30.01S
WHEATON        CLEAR     73  59  60 CALM      29.99S
BRAINERD       CLEAR     71  54  54 NE8       30.00S
HIBBING        CLEAR     65  50  58 NE8       30.02R
ALEXANDRIA     CLEAR     75  50  41 N6        30.01S
SAINT CLOUD    CLEAR     75  53  46 N3        29.98R
MINNEAPOLIS    PTCLDY    78  50  37 W12       29.97S
$$

  *****  WEATHER ACROSS SOUTH DAKOTA  *****

CITY           SKY/WX    TMP DP  RH WIND       PRES   REMARKS
SIOUX FALLS    CLOUDY    74  62  66 E10       29.99S
BROOKINGS      PTCLDY    73  59  60 SE7       30.03R
WATERTOWN      CLEAR     76  54  46 E7        30.00R
HURON          PTCLDY    77  62  59 SE9       29.95S
SISSETON         N/A     74  56  53 E5        29.98R
ABERDEEN       CLEAR     78  58  49 E7        29.96S
MITCHELL       MOCLDY    76  65  68 E7        29.97R
PIERRE         MOCLDY    79  60  52 E14       29.91S
MOBRIDGE       SUNNY     82  60  47 SE14      29.91S
RAPID CITY     PTSUNNY   79  61  53 S8        29.95R
$$

  *****  SOME WEATHER IN NEARBY STATES *****

CITY           SKY/WX    TMP DP  RH WIND       PRES   REMARKS
GLASGOW MT     CLOUDY    73  60  63 NE7       29.85R
GREAT FALLS MT CLOUDY    77  50  38 N14       29.93R
CHEYENNE WY    MOSUNNY   70  52  52 NE8       30.13R
SCOTTSBLUFF NE PTSUNNY   70  67  90 S5        30.00S
OMAHA NE       MOCLDY    75  66  73 E9        29.96S
DES MOINES IA  MOCLDY    76  62  62 E6        29.99S
DAVENPORT IA   PTCLDY    73  64  73 CALM      30.00R
CHICAGO IL     MOCLDY    75  52  44 N7        29.97R
EAU CLAIRE WI  CLEAR     72  56  57 NW3       29.97R
LA CROSSE WI   CLEAR     76  55  48 W6        29.98R
$$

  *****  SOME NATIONAL WEATHER *****

CITY           SKY/WX    TMP DP  RH WIND       PRES   REMARKS
LA GUARDIA NY  PTCLDY    84  52  33 W10       29.88R
RALEIGH NC     PTCLDY    85  70  60 S3        29.93R
ATLANTA GA     PTCLDY    88  63  43 CALM      29.99R
NEW ORLEANS LA MOCLDY    84  75  74 SW13      29.94R HX  92
OKLAHOMA CITY  PTCLDY    83  74  74 S6        29.91R
ALBUQUERQUE NM MOSUNNY   92  43  18 W7        30.10F
SALT LAKE CITY PTSUNNY   90  47  22 S14       29.97F
LOS ANGELES CA MOSUNNY   75  60  59 W20       29.89F
BOISE ID       SUNNY     91  42  18 CALM      29.88S
SEATTLE WA     PTSUNNY   78  48  34 S10       29.97F
$$

*** WEATHER ACROSS MANITOBA...SASKATCHEWAN AND ONTARIO ***
                ***ONTARIO***

CITY           SKY/WX    TMP DP  RH WIND       PRES   REMARKS
GERALDTON      PTCLDY    59  50  72 NW5       29.96R
THUNDER BAY    PTCLDY    63  54  72 W6        29.99R
SIOUX LOOKOUT  PTCLDY    59  52  77 W6        30.04R
TORONTO        MOCLDY    66  59  77 W7        29.90R
BIG TROUT LK   CLOUDY    57  50  77 N6        30.01R
PICKLE LAKE    MOCLDY    59  52  77 VRB5      30.01S
DRYDEN         CLOUDY    59  52  77 NE5       30.05R
KENORA         PTCLDY    64  52  63 E3        30.05R
$$
                *** MANITOBA***

CITY           SKY/WX    TMP DP  RH WIND       PRES   REMARKS
BRANDON        PTSUNNY   70  54  56 E8        30.01R
DAUPHIN        MOSUNNY   66  57  72 E8        30.01S
ISLAND LAKE    MOCLDY    59  54  82 NE2       30.04S
PILOT MOUND      N/A     68  55  64 E6          N/A
THE PAS        PTSUNNY   68  54  60 N2        30.02F
THOMPSON       CLOUDY    59  50  72 NE3       30.07S
WINNIPEG       PTCLDY    66  55  68 NE6       30.03F
LYNN LAKE      CLOUDY    63  54  72 S3        30.06F
CHURCHILL      CLOUDY    48  46  93 N6        30.12R FOG
GILLAM         MOCLDY    55  50  82 NE6       30.08R
$$
                ***SASKATCHEWAN***

CITY           SKY/WX    TMP DP  RH WIND       PRES   REMARKS
ESTEVAN          N/A     77  54  44 E17G24    29.93S
KINDERSLEY     CLOUDY    70  57  64 W8        29.79F
LLOYDMINSTER   CLOUDY    66  57  72 E15G21    29.82S
PRINCE ALBERT  LGT RAIN  66  55  68 E14G24    29.90F
REGINA         CLOUDY    77  54  44 E18G24    29.87F
YORKTON        PTSUNNY   70  57  64 SE9       29.97F HAZE
N. BATTLEFORD  CLOUDY    68  55  64 E23G30    29.81F
LA RONGE       LGT RAIN  63  57  82 SW5       30.02R
SASKATOON      TSTM      66  63  88 E15       29.84S
SWIFT CURRENT  CLOUDY    77  54  44 W8        29.84R
$$
NOTE: THESE ARE AUTOMATED STATIONS WITH LIMITED QUALITY CONTROL
      "FAIR" INDICATES FEW OR NO CLOUDS BELOW 12,000 FEET WITH NO
      SIGNIFICANT WEATHER AND/OR OBSTRUCTIONS TO VISIBILITY.
      SKY/WX - SKY CONDITION AND SIGNIFICANT WEATHER.
      TMP - AIR TEMPERATURE.    DP   - DEWPOINT TEMPERATURE.
      RH  - RELATIVE HUMIDITY.  PRES - PRESSURE.
      HX  - HEAT INDEX.         WCI  - WIND CHILL INDEX.
$


USA.gov is the U.S. government's official web portal to all federal, state and local government web resources and services.